Duncan, OK

11:41 AM CST on November 15, 2019 (GMT -0600)
Halliburton

Weather History for KDUC - September, 2019

Change the Weather History Date:

Thursday, September 19, 2019

  Actual Average (WUND) Record (WUND)
Temperature  
Mean Temperature 77 °F -  
Max Temperature 85 °F - - (-1)
Min Temperature 69 °F - - (-1)
Cooling Degree Days 12    
Growing Degree Days 27 (Base 50)    
Moisture  
Dew Point 69 °F    
Average Humidity 79    
Maximum Humidity 96    
Minimum Humidity 55    
Precipitation  
Precipitation 0.00 in - - ()
Sea Level Pressure  
Sea Level Pressure 29.95 in    
Wind  
Wind Speed 7 mph (ESE)    
Max Wind Speed 21 mph    
Max Gust Speed 22 mph    
Visibility 10 miles    
Events      
Averages and records for this station are not official NWS values.
T = Trace of Precipitation, MM = Missing Value Source: NWS Daily Summary

Daily Weather History Graph

Daily Weather History Graph

Search for Another Location

Airport or City:

Astronomy

Sep. 19, 2019 Rise Set
Actual Time 7:17 AM CDT 7:33 PM CDT
Civil Twilight 6:52 AM CDT 7:58 PM CDT
Nautical Twilight 6:23 AM CDT 8:27 PM CDT
Astronomical Twilight 5:53 AM CDT 8:57 PM CDT
Moon 10:56 PM CDT (9/19) 12:10 PM CDT (9/19)
Length of Visible Light 13h 05m
Length of Day
12h 15m
Waning Gibbous, 74% of the Moon is Illuminated
Sep 19
Waning Gibbous
Sep 21
Last Quarter
Sep 28
New
Oct 5
First Quarter
Oct 13
Full

Hourly Weather History & Observations

Time (CDT) Temp. Heat Index Dew Point Humidity Pressure Visibility Wind Dir Wind Speed Gust Speed Precip Events Conditions
12:15 AM 75.9 °F - 70.3 °F 83% 29.96 in 10.0 mi ESE 6.9 mph - N/A   Clear
12:35 AM 75.6 °F - 70.3 °F 84% 29.96 in 10.0 mi ESE 6.9 mph - N/A   Clear
12:55 AM 75.0 °F - 70.3 °F 85% 29.96 in 10.0 mi East 5.8 mph - N/A   Clear
1:15 AM 74.8 °F - 70.3 °F 86% 29.96 in 10.0 mi ESE 5.8 mph - N/A   Clear
1:35 AM 74.1 °F - 70.3 °F 88% 29.96 in 10.0 mi ESE 5.8 mph - N/A   Clear
1:55 AM 73.8 °F - 70.2 °F 88% 29.96 in 10.0 mi ESE 4.6 mph - N/A   Clear
2:15 AM 73.4 °F - 70.2 °F 90% 29.96 in 10.0 mi ENE 4.6 mph - N/A   Clear
2:35 AM 73.4 °F - 70.2 °F 90% 29.96 in 10.0 mi ENE 4.6 mph - N/A   Clear
2:55 AM 73.6 °F - 70.0 °F 88% 29.96 in 10.0 mi ENE 4.6 mph - N/A   Clear
3:15 AM 73.4 °F - 69.8 °F 88% 29.95 in 10.0 mi ENE 5.8 mph - N/A   Clear
3:35 AM 73.4 °F - 69.6 °F 88% 29.95 in 10.0 mi ENE 4.6 mph - N/A   Clear
4:15 AM 72.3 °F - 69.1 °F 89% 29.94 in 10.0 mi East 6.9 mph - N/A   Clear
4:55 AM 71.4 °F - 68.9 °F 92% 29.95 in 10.0 mi East 6.9 mph - N/A   Clear
5:15 AM 70.9 °F - 68.7 °F 93% 29.95 in 10.0 mi ESE 5.8 mph - N/A   Clear
5:35 AM 70.5 °F - 68.7 °F 94% 29.95 in 10.0 mi East 4.6 mph - N/A   Clear
5:55 AM 70.3 °F - 68.5 °F 94% 29.95 in 10.0 mi ESE 3.5 mph - N/A   Clear
6:15 AM 70.0 °F - 68.5 °F 95% 29.95 in 10.0 mi East 4.6 mph - N/A   Clear
6:35 AM 70.0 °F - 68.5 °F 95% 29.95 in 10.0 mi ESE 4.6 mph - N/A   Clear
6:55 AM 69.6 °F - 68.5 °F 96% 29.96 in 10.0 mi East 4.6 mph - N/A   Clear
7:15 AM 69.8 °F - 68.7 °F 96% 29.96 in 10.0 mi East 5.8 mph - N/A   Clear
7:35 AM 70.2 °F - 69.1 °F 96% 29.96 in 10.0 mi East 5.8 mph - N/A   Clear
7:55 AM 70.9 °F - 69.4 °F 95% 29.97 in 10.0 mi ESE 5.8 mph - N/A   Clear
8:15 AM 71.6 °F - 69.8 °F 94% 29.97 in 10.0 mi ESE 6.9 mph - N/A   Clear
8:35 AM 71.8 °F - 70.3 °F 95% 29.97 in 10.0 mi ESE 6.9 mph - N/A   Mostly Cloudy
8:55 AM 72.7 °F - 71.1 °F 95% 29.99 in 10.0 mi East 5.8 mph - N/A   Overcast
9:15 AM 74.1 °F - 71.6 °F 92% 30.00 in 10.0 mi East 9.2 mph - N/A   Overcast
9:35 AM 75.0 °F - 71.6 °F 89% 30.00 in 10.0 mi East 9.2 mph - N/A   Mostly Cloudy
9:55 AM 76.8 °F - 71.4 °F 83% 30.00 in 10.0 mi ESE 10.4 mph - N/A   Mostly Cloudy
10:15 AM 78.3 °F - 72.0 °F 81% 30.00 in 10.0 mi ESE 10.4 mph - N/A   Mostly Cloudy
10:35 AM 76.5 °F - 71.1 °F 83% 30.00 in 10.0 mi East 9.2 mph - N/A   Overcast
10:55 AM 77.4 °F - 70.5 °F 79% 30.00 in 10.0 mi ESE 9.2 mph - N/A   Overcast
11:15 AM 77.4 °F - 70.7 °F 80% 30.00 in 10.0 mi East 11.5 mph - N/A   Overcast
11:35 AM 79.3 °F - 70.2 °F 73% 29.99 in 10.0 mi East 12.7 mph - N/A   Mostly Cloudy
11:55 AM 79.3 °F - 70.3 °F 74% 29.99 in 10.0 mi East 10.4 mph - N/A   Overcast
12:15 PM 81.3 °F 85.0 °F 70.3 °F 69% 29.98 in - SE 10.4 mph 17.3 mph N/A   Mostly Cloudy
12:35 PM 81.7 °F 85.4 °F 70.0 °F 68% 29.98 in 10.0 mi ESE 10.4 mph - N/A   Mostly Cloudy
12:55 PM 83.5 °F 88.0 °F 70.5 °F 65% 29.97 in 10.0 mi ESE 12.7 mph - N/A   Overcast
1:15 PM 83.5 °F 87.7 °F 70.0 °F 64% 29.96 in 10.0 mi East 9.2 mph - N/A   Mostly Cloudy
1:35 PM 84.0 °F 88.4 °F 70.0 °F 63% 29.96 in 10.0 mi East 12.7 mph - N/A   Overcast
1:55 PM 85.8 °F 90.1 °F 69.4 °F 58% 29.95 in 10.0 mi ESE 12.7 mph 19.6 mph N/A   Mostly Cloudy
2:15 PM 85.5 °F 89.8 °F 69.8 °F 59% 29.95 in 10.0 mi ESE 17.3 mph - N/A   Mostly Cloudy
2:35 PM 85.8 °F 89.1 °F 68.2 °F 55% 29.95 in 10.0 mi East 19.6 mph - N/A   Mostly Cloudy
2:55 PM 85.5 °F 88.8 °F 68.4 °F 56% 29.94 in 10.0 mi ESE 15.0 mph 21.9 mph N/A   Scattered Clouds
3:15 PM 84.2 °F 88.1 °F 69.3 °F 61% 29.94 in 10.0 mi ESE 15.0 mph - N/A   Mostly Cloudy
3:55 PM 83.5 °F 86.9 °F 68.5 °F 61% 29.93 in 10.0 mi ESE 15.0 mph - N/A   Overcast
4:35 PM 84.7 °F 88.2 °F 68.7 °F 58% 29.91 in 10.0 mi ESE 12.7 mph - N/A   Scattered Clouds
4:55 PM 84.9 °F 87.9 °F 67.6 °F 56% 29.91 in 10.0 mi SE 20.7 mph - N/A   Mostly Cloudy
5:15 PM 85.3 °F 88.8 °F 68.4 °F 57% 29.90 in 10.0 mi ESE 15.0 mph 21.9 mph N/A   Mostly Cloudy
5:55 PM 84.2 °F 87.1 °F 67.3 °F 57% 29.90 in 10.0 mi SE 15.0 mph 19.6 mph N/A   Scattered Clouds
6:15 PM 83.3 °F 86.2 °F 67.5 °F 59% 29.91 in 10.0 mi ESE 15.0 mph - N/A   Scattered Clouds
6:35 PM 82.9 °F 85.8 °F 68.0 °F 60% 29.90 in 10.0 mi SE 12.7 mph - N/A   Clear
6:55 PM 81.9 °F 84.8 °F 68.4 °F 63% 29.90 in 10.0 mi SE 10.4 mph - N/A   Clear
7:15 PM 81.0 °F 83.8 °F 68.0 °F 65% 29.91 in 10.0 mi SE 9.2 mph - N/A   Clear
7:35 PM 79.0 °F - 68.4 °F 70% 29.90 in 10.0 mi SE 9.2 mph - N/A   Clear
7:55 PM 78.4 °F - 68.4 °F 71% 29.90 in 10.0 mi SE 8.1 mph - N/A   Scattered Clouds
8:15 PM 77.7 °F - 68.5 °F 73% 29.92 in 10.0 mi SE 6.9 mph - N/A   Scattered Clouds
8:55 PM 76.1 °F - 68.9 °F 78% 29.94 in 10.0 mi SE 4.6 mph - N/A   Clear
9:15 PM 75.0 °F - 68.9 °F 81% 29.94 in 10.0 mi ESE 5.8 mph - N/A   Clear
9:35 PM 74.7 °F - 68.9 °F 82% 29.94 in 10.0 mi East 3.5 mph - N/A   Clear
9:55 PM 75.2 °F - 69.1 °F 81% 29.95 in 10.0 mi Calm Calm - N/A   Clear
10:15 PM 74.8 °F - 68.9 °F 82% 29.94 in 10.0 mi East 3.5 mph - N/A   Clear
10:35 PM 75.0 °F - 69.4 °F 83% 29.94 in 10.0 mi Calm Calm - N/A   Clear
10:55 PM 74.1 °F - 68.9 °F 84% 29.95 in 10.0 mi Calm Calm - N/A   Clear
11:15 PM 73.0 °F - 69.1 °F 87% 29.94 in 10.0 mi Calm Calm - N/A   Clear
11:35 PM 73.4 °F - 68.7 °F 85% 29.94 in 10.0 mi NNW 3.5 mph - N/A   Clear
11:55 PM 73.6 °F - 69.1 °F 86% 29.94 in 10.0 mi NW 3.5 mph - N/A   Scattered Clouds